CZ-6A DEB, 54965

Orbit data source: Space-Track

CZ-6A DEB, 54965 is space debris in SSO originally from a launch on Fri, 11 Nov 2022 UTC launched from the Taiyaun Space Center, China (TSC). Debris objects in space refer to the collection of defunct objects orbiting the Earth. Examples of debris include non-operational satellites, rocket bodies, and fragments generated from explosions, collisions, or faulty payload assembly.

Loading next visibility...
Identifier
54965, 2022-151TE
Orbit
SSO
Country
Flag of CNCN / PRC
Related business
Manufacturer
SAST
Mission
Spacecraft
Bus & Motor
Unknown
Mass
Unknown
Launch date (UTC)
2022-11-11 (3 years ago)
Launch vehicle
Unknown
Launch site
Taiyaun Space Center, China (TSC)
Object type
Payload
Rocket body
Debris
Shape & HBR
Unknown shape, 0.1 m
Radar Cross Section
Small (<0.1 m²)

Expand to show TLE details & history
Last TLE update: 19 hours ago

TLE from 19 hours ago
0 CZ-6A DEB
1 54965U 22151TE  25351.92737875  .00000113  00000-0  92163-4 0  9994
2 54965  98.8121 334.5340 0086401 180.1951 179.9198 14.05779447158697
Epoch: 2025-12-17T22:15Z
TLE epoch observation values (Epoch: 2025-12-17T22:15:25.524Z)
Latitude
-0.00002°
Longitude
-86.11256°
Altitude
939.413 km
Speed
7.35 km/s
True Right ascension
22h 18m 08s
True Declination
0° 00' 00"
Sunlit
Object was in daylight at epoch
Visualization orbit readout
Latitude
Unknown
Longitude
Unknown
Altitude
Unknown
Speed
Unknown
Apparent Right ascension
Unknown
Apparent Declination
Unknown
Sunlit
N/A
Visualization observer readout
Local Sidereal Time
16:18:42
Azimuth
Unknown
Elevation
Unknown
Doppler factor
Unknown
Orbital elements
Apogee altitude
933.666 km
Perigee altitude
808.399 km
Semi-major axis
7,249.17 km
Eccentricity
0.00864
Inclination
98.8121°
RAAN
334.534°
Arg. of periapsis
180.1951°
True anomaly
179.92117°
Mean anomaly
179.9198°
Eccentric anomaly
179.92049°
Mean motion
3.5165 °/min
Orbital period
102.37 mins
BSTAR
0.000092163
Loading maneuver chart data...
Computing Atmospheric mass density...
Loading historical data...
Loading historical data...
Loading historical data...
Loading historical data...
Loading historical data...
Loading historical data...
Loading historical data...

Documentation

Showing up to 5 results
|